[[{"header":{"parameterUnit":"m.s-1","parameterCategory":1,"la1":30.2991,"la2":30.254,"lo1":-89.0895,"lo2":-89.0444,"dy":0.0017,"dx":0.0017,"nx":28,"ny":28,"refTime":"2023-10-08T09:00:00:Z","depth":0,"parameterNumber":2,"parameterNumberName":"U-component_of_WINDS"},"data":[0,0,0,0,0,0,0,0,0,0,0,0,0,0,0,0,0,0,0,0,0,0,0,0,0,0,0,0,0,0,0,0,0,0,0,0,0,0,0,0,0,0,0,0,0,0,0,0,0,0,0,0,0,0,0,0,0,0,3.8874,3.8876,0,3.901,3.9011,3.9013,3.8988,3.8985,3.8983,3.8981,3.9115,3.9121,3.9126,0,0,0,0,0,0,0,0,0,0,0,0,0,3.8587,3.8592,3.8874,3.8876,3.8878,3.9009,3.9011,3.9013,3.8988,3.8985,3.8982,3.8979,3.9113,3.912,3.9127,0,0,0,0,0,0,0,0,0,0,0,0,0,3.8716,3.8594,3.8874,3.8881,3.8883,3.9009,3.9011,3.9014,3.8989,3.8985,3.8981,3.8978,3.9111,3.9119,3.9128,3.9254,0,0,3.9154,3.9158,0,0,0,0,0,0,0,0,3.8708,3.8726,3.8878,3.8881,3.8883,3.8978,3.8959,3.9094,3.899,3.8948,3.898,3.8976,3.9072,3.9084,3.9117,3.926,3.9266,3.9155,3.9161,3.9164,3.9167,0,0,0,0,0,0,0,3.87,3.872,3.8928,3.888,3.8884,3.8875,3.8889,3.8985,3.9029,3.8952,3.895,3.8967,3.9073,3.9109,3.912,3.9268,3.9155,3.9163,3.9168,3.9172,3.9515,3.9519,0,0,0,0,0,0,3.8689,3.8713,3.8923,3.8932,3.8785,3.8883,3.8899,3.8951,3.9028,3.9036,3.897,3.8965,3.9095,3.911,3.9124,3.9273,3.9164,3.9172,3.9177,3.9512,3.9516,3.952,0,0,0,0,0,0,3.8683,3.8708,3.8918,3.8822,3.8848,3.8892,3.8951,3.8956,3.8992,3.9041,3.9048,3.8999,3.9093,3.9112,3.9221,3.9277,3.9176,3.9184,3.9507,3.9513,3.9518,3.9574,0,0,0,0,0,0,3.8675,3.8706,3.8756,3.8823,3.8853,3.9014,3.8954,3.8961,3.9007,3.9003,3.907,3.9078,3.9092,3.9208,3.923,3.9288,3.9191,3.9502,3.951,3.9517,3.9567,3.9581,3.9592,0,0,0,0,0,3.8665,3.8767,3.8759,3.8785,3.8917,3.9018,3.9035,3.905,3.9012,3.9061,3.9092,3.9076,3.9268,3.9219,3.9243,3.9305,3.9498,3.9507,3.9516,3.9561,3.9578,3.9592,0,0,0,0,0,0,3.8705,3.8776,3.8768,3.8895,3.8951,3.9013,3.9076,3.9068,3.9134,3.9126,3.9141,3.9156,3.9265,3.9297,3.9241,3.9428,3.9378,3.9392,3.9404,3.942,3.9433,3.9421,3.9198,0,0,0,0,0,3.8729,3.8806,3.8863,3.897,3.8998,3.9032,3.9077,3.9083,3.9141,3.9164,3.9203,3.9258,3.9329,3.9377,3.9447,3.9572,3.9583,3.9625,3.9638,3.9648,3.9659,3.9722,3.974,3.9549,3.9549,3.9549,0,0,3.8778,3.8827,3.8875,3.8979,3.9023,3.9099,3.9052,3.9137,3.9193,3.9176,3.928,3.9311,3.9372,3.9488,3.9542,3.9518,3.9715,3.966,3.9667,3.9673,3.9733,3.9751,3.9767,3.9555,3.9554,3.9553,0,0,3.8907,3.8954,3.9045,3.9089,3.9156,3.9178,3.9199,3.9263,3.9283,3.9388,3.9375,3.9441,3.9567,3.961,3.9648,3.9789,3.9775,3.9812,3.9877,3.9939,3.9953,3.9967,4.0013,4.003,3.9823,3.9823,3.9823,0,3.896,3.9078,3.9093,3.9178,3.9222,3.9211,3.9301,3.9343,3.9428,3.9458,3.943,3.9584,3.9626,3.9749,3.9783,3.9816,3.9838,3.9803,3.9951,3.9964,3.9977,4.002,4.0038,3.9827,3.9826,3.9826,3.9826,0,3.9136,3.9218,3.9283,3.9366,3.9418,3.9505,3.9531,3.9581,3.9582,3.9606,3.971,3.9759,3.9836,3.9866,3.9869,3.9989,3.9971,3.9947,3.9896,3.9998,4.0039,4.0057,3.9832,3.9831,3.983,3.9829,0,0,3.9295,3.9383,3.9407,3.9442,3.9513,3.9575,3.966,3.9736,3.9776,3.9835,3.9903,4.0008,3.9985,4.0029,4.0036,4.009,4.0193,4.0059,4.006,4.0078,4.0322,4.0337,4.0357,4.0185,4.0188,4.0191,4.0316,0,3.9427,3.9579,3.9593,3.9728,3.98,3.9789,3.9862,3.9911,3.9935,3.9998,4.0023,4.0096,4.0062,4.0087,4.0141,4.0169,4.0241,4.0161,4.0245,4.0247,4.0226,4.0379,4.0397,4.0512,4.0332,4.0335,4.0337,0,3.9603,3.9665,3.9807,3.9864,3.9895,3.9961,4.0028,4.009,4.0145,4.0158,4.0205,4.0203,4.0287,4.0234,4.0347,4.0292,4.0327,4.0345,4.035,4.0356,4.0296,4.0385,4.055,4.0566,4.0364,4.0361,4.036,0,3.9698,3.9819,3.9918,3.9949,4.0019,4.0064,4.0095,4.0147,4.019,4.0249,4.0276,4.0344,4.0381,4.0432,4.0447,4.0409,4.0558,4.0508,4.0567,4.0567,4.0597,4.0595,4.0766,4.0626,4.0626,4.0626,4.0625,0,3.9843,3.9929,3.9961,4.0021,4.0116,4.013,4.0223,4.0251,4.0296,4.0359,4.0354,4.0413,4.0431,4.0493,4.0505,4.0594,4.0611,4.0621,4.0623,4.062,4.0618,4.0641,4.0632,4.063,4.0629,4.0628,4.0628,0,3.9965,3.9991,4.0097,4.0154,4.017,4.0237,4.0284,4.034,4.0362,4.0442,4.0461,4.0495,4.0566,4.0587,4.0673,4.0681,4.0784,4.078,4.0765,4.0764,4.0821,4.0814,4.101,4.1035,4.0882,4.0884,4.0885,0,4.0054,4.012,4.0183,4.0225,4.0258,4.0326,4.037,4.0386,4.0431,4.0496,4.0543,4.0614,4.0671,4.0785,4.0815,4.088,4.0875,4.0939,4.0884,4.0878,4.087,4.0865,4.0869,4.0948,4.095,4.0951,4.0953,0,4.0208,4.0216,4.028,4.0347,4.0399,4.0453,4.0504,4.0538,4.0561,4.0611,4.0684,4.0728,4.0815,4.0883,4.0948,4.0977,4.0967,4.097,4.0986,4.0982,4.0969,4.0972,4.0789,4.0965,4.0963,4.0963,4.0962,4.0961,4.0313,4.0369,4.0421,4.0491,4.0531,4.0578,4.0632,4.066,4.0722,4.0794,4.0799,4.0877,4.0925,4.1011,4.1043,4.1102,4.1083,4.1108,4.1113,4.1118,4.1121,4.0962,4.1115,4.1114,4.1114,4.1114,4.1113,0,4.0462,4.0495,4.0559,4.063,4.0684,4.0672,4.0727,4.0771,4.084,4.0887,4.0943,4.1024,4.1089,4.1124,4.1189,4.1228,4.1225,4.1244,4.124,4.1245,4.1137,4.1114,4.1246,4.1246,4.1246,4.1246,4.1246,4.1245,4.0546,4.0638,4.0653,4.0763,4.0794,4.0871,4.0902,4.0944,4.0981,4.1072,4.1127,4.1149,4.119,4.1256,4.1314,4.1323,4.1344,4.1365,4.1371,4.1268,4.1254,4.1241,4.1219,4.1371,4.1371,4.1474,4.1475,4.1476]},{"header":{"parameterUnit":"m.s-1","parameterCategory":1,"la1":30.2991,"la2":30.254,"lo1":-89.0895,"lo2":-89.0444,"dy":0.0017,"dx":0.0017,"nx":28,"ny":28,"refTime":"2023-10-08T09:00:00:Z","depth":0,"parameterNumber":3,"parameterNumberName":"V-component_of_WINDS"},"data":[0,0,0,0,0,0,0,0,0,0,0,0,0,0,0,0,0,0,0,0,0,0,0,0,0,0,0,0,0,0,0,0,0,0,0,0,0,0,0,0,0,0,0,0,0,0,0,0,0,0,0,0,0,0,0,0,0,0,1.1185,1.1185,0,1.1222,1.1222,1.1223,1.1201,1.12,1.1199,1.1198,1.1237,1.1239,1.1241,0,0,0,0,0,0,0,0,0,0,0,0,0,1.1093,1.1095,1.1184,1.1185,1.1185,1.1222,1.1222,1.1223,1.1201,1.12,1.1198,1.1197,1.1236,1.1238,1.1241,0,0,0,0,0,0,0,0,0,0,0,0,0,1.1132,1.1095,1.1184,1.1179,1.1179,1.1222,1.1222,1.1223,1.1201,1.12,1.1198,1.1197,1.1235,1.1238,1.1241,1.1292,0,0,1.1251,1.1252,0,0,0,0,0,0,0,0,1.113,1.1135,1.1179,1.1179,1.1179,1.1205,1.1204,1.1246,1.1202,1.1193,1.1198,1.1196,1.1228,1.1231,1.1242,1.1294,1.1295,1.1251,1.1253,1.1254,1.1255,0,0,0,0,0,0,0,1.1127,1.1134,1.1199,1.118,1.118,1.1174,1.1178,1.1212,1.1219,1.1193,1.1192,1.1197,1.1227,1.1239,1.1242,1.1296,1.1251,1.1253,1.1255,1.1256,1.1389,1.1391,0,0,0,0,0,0,1.1125,1.1131,1.1198,1.12,1.115,1.1177,1.1181,1.1198,1.1218,1.122,1.1198,1.1195,1.1234,1.1239,1.1244,1.1303,1.1254,1.1257,1.1259,1.1387,1.1389,1.1391,0,0,0,0,0,0,1.1123,1.1131,1.1197,1.1166,1.1173,1.118,1.12,1.12,1.1211,1.1222,1.1223,1.1209,1.1233,1.1239,1.1279,1.1304,1.1258,1.1261,1.1385,1.1388,1.139,1.1423,0,0,0,0,0,0,1.112,1.113,1.115,1.1166,1.1175,1.1232,1.1201,1.1202,1.1217,1.1214,1.1232,1.1233,1.1232,1.1275,1.1283,1.1307,1.1263,1.1383,1.1386,1.1389,1.142,1.1426,1.1432,0,0,0,0,0,1.1117,1.1159,1.1151,1.116,1.12,1.1234,1.1239,1.1237,1.1219,1.1238,1.1244,1.1233,1.13,1.1279,1.1288,1.1314,1.1382,1.1386,1.1389,1.1417,1.1425,1.1432,0,0,0,0,0,0,1.1147,1.1161,1.1153,1.1201,1.1216,1.123,1.1255,1.1246,1.1267,1.1264,1.126,1.1264,1.1306,1.1314,1.129,1.1363,1.1338,1.1344,1.1356,1.1364,1.137,1.1367,1.1266,0,0,0,0,0,1.1158,1.1185,1.1196,1.1237,1.1245,1.1248,1.1263,1.126,1.1276,1.1282,1.1291,1.1307,1.1332,1.1348,1.1371,1.142,1.1423,1.1442,1.1448,1.1453,1.1458,1.1483,1.1491,1.1404,1.1404,1.1404,0,0,1.1184,1.1194,1.1211,1.1243,1.1254,1.1281,1.1254,1.1284,1.1304,1.1287,1.1325,1.1332,1.1349,1.1394,1.1414,1.1402,1.1482,1.1458,1.1462,1.1464,1.1487,1.1496,1.1503,1.1406,1.1406,1.1405,0,0,1.1243,1.1254,1.1289,1.13,1.1318,1.1319,1.1327,1.1342,1.1346,1.1384,1.1371,1.1394,1.1437,1.1449,1.1461,1.1522,1.1512,1.153,1.1562,1.1586,1.1593,1.1599,1.1619,1.1627,1.1535,1.1535,1.1535,0,1.1272,1.1312,1.1308,1.1338,1.1351,1.1336,1.137,1.1382,1.1406,1.1416,1.1402,1.1453,1.1464,1.151,1.1524,1.1535,1.1543,1.1528,1.1592,1.1598,1.1603,1.1623,1.1631,1.1537,1.1536,1.1536,1.1536,0,1.1346,1.1374,1.1399,1.1422,1.1438,1.1471,1.1471,1.1487,1.1482,1.1485,1.1523,1.1535,1.1559,1.157,1.1566,1.1614,1.1606,1.1592,1.1567,1.1614,1.1632,1.164,1.154,1.1539,1.1538,1.1538,0,0,1.1427,1.1445,1.1454,1.1463,1.148,1.1501,1.1532,1.1555,1.1569,1.1585,1.1611,1.1646,1.1632,1.1645,1.1642,1.1663,1.1709,1.1646,1.1646,1.1657,1.1762,1.1772,1.1781,1.1701,1.1703,1.1704,1.176,0,1.1486,1.154,1.1536,1.1586,1.161,1.1595,1.1622,1.1634,1.1637,1.1658,1.1661,1.1686,1.1667,1.1674,1.1694,1.1699,1.173,1.1695,1.1724,1.1725,1.172,1.1791,1.1802,1.1855,1.1767,1.1768,1.1769,0,1.1564,1.1582,1.1634,1.1645,1.1655,1.1679,1.1698,1.1719,1.1732,1.1733,1.1746,1.1739,1.1769,1.1743,1.1783,1.1759,1.1771,1.1775,1.1776,1.1779,1.175,1.1795,1.1871,1.1879,1.1781,1.178,1.1779,0,1.1616,1.1653,1.1689,1.1697,1.1711,1.1728,1.1734,1.1746,1.176,1.1777,1.1785,1.1806,1.1817,1.1833,1.183,1.1812,1.1871,1.1845,1.1872,1.1872,1.1885,1.1884,1.1964,1.1893,1.1893,1.1893,1.1893,0,1.1683,1.1715,1.1712,1.1734,1.1769,1.1764,1.1798,1.1803,1.1813,1.1835,1.1823,1.1844,1.184,1.186,1.1858,1.1891,1.1897,1.1897,1.1897,1.1898,1.1898,1.1906,1.1902,1.1895,1.1894,1.1894,1.1894,0,1.1748,1.1747,1.1784,1.1794,1.1797,1.1822,1.183,1.185,1.1851,1.1879,1.1885,1.1887,1.191,1.1909,1.1936,1.1934,1.1974,1.197,1.197,1.1969,1.1995,1.1992,1.2082,1.2093,1.2016,1.2016,1.2017,0,1.179,1.1815,1.1826,1.1839,1.1847,1.1869,1.1882,1.1876,1.189,1.1906,1.1924,1.1946,1.1963,1.2001,1.2004,1.2024,1.2019,1.2049,1.2022,1.2023,1.2019,1.2017,1.2019,1.2055,1.2056,1.2056,1.2057,0,1.1866,1.1864,1.1883,1.1901,1.1917,1.1931,1.1944,1.1956,1.1952,1.1968,1.1991,1.2004,1.203,1.2052,1.207,1.2076,1.2066,1.2065,1.2072,1.2074,1.2073,1.2073,1.1984,1.2063,1.2063,1.2062,1.2062,1.2062,1.192,1.194,1.1951,1.1972,1.1981,1.1993,1.2011,1.2014,1.2033,1.2054,1.2049,1.2075,1.2085,1.2109,1.2116,1.2136,1.2125,1.2136,1.2138,1.2141,1.2143,1.207,1.2139,1.2139,1.2139,1.2139,1.2139,0,1.1994,1.2,1.2019,1.2037,1.2053,1.2041,1.2054,1.2068,1.2091,1.2101,1.2118,1.2143,1.2164,1.2168,1.2187,1.2201,1.2197,1.2207,1.2205,1.2207,1.2152,1.2144,1.221,1.221,1.221,1.221,1.221,1.221,1.2035,1.2067,1.2066,1.2102,1.2107,1.2132,1.214,1.2151,1.2159,1.2188,1.2204,1.2206,1.2214,1.2233,1.225,1.2251,1.2258,1.227,1.2268,1.2218,1.2211,1.2204,1.2196,1.2272,1.2272,1.2321,1.2321,1.2322]}]]